Artesia, NM

9:13 PM MST on January 18, 2018 (GMT -0700)
Artesia Municipal

Weather History for KATS - December, 2012

Change the Weather History Date:

Monday, December 10, 2012

  Actual Average Record
Temperature  
Mean Temperature 29 °F -  
Max Temperature 41 °F 58 °F 80 °F (2015)
Min Temperature 17 °F 22 °F -9 °F (1978)
Degree Days  
Heating Degree Days 36    
Moisture  
Dew Point 17 °F    
Average Humidity 66    
Maximum Humidity 93    
Minimum Humidity 33    
Precipitation  
Precipitation 0.00 in - - ()
Sea Level Pressure  
Sea Level Pressure 30.10 in    
Wind  
Wind Speed 8 mph (SSW)    
Max Wind Speed 17 mph    
Max Gust Speed 23 mph    
Visibility 10 miles    
Events Rain    
Averages and records for this station are not official NWS values.
T = Trace of Precipitation, MM = Missing Value Source: NWS Daily Summary

Daily Weather History Graph

Daily Weather History Graph

Search for Another Location

Airport or City:

Trip Planner

Search our weather history database for the weather conditions in past years. The results will help you decide how hot, cold, wet, or windy it might be!

Date:

Astronomy

Dec. 10, 2012 Rise Set
Actual Time 6:49 AM MST 4:51 PM MST
Civil Twilight 6:22 AM MST 5:19 PM MST
Nautical Twilight 5:52 AM MST 5:49 PM MST
Astronomical Twilight 5:21 AM MST 6:19 PM MST
Moon 3:42 AM MST (12/10) 2:38 PM MST (12/10)
Length of Visible Light 10h 56m
Length of Day
10h 01m
Waning Crescent, 10% of the Moon is Illuminated
Dec 10
Waning Crescent
Dec 13
New
Dec 19
First Quarter
Dec 28
Full
Jan 4
Last Quarter

Hourly Weather History & Observations

Time (MST) Temp. Windchill Dew Point Humidity Pressure Visibility Wind Dir Wind Speed Gust Speed Precip Events Conditions
12:15 AM 26.6 °F 13.8 °F 24.8 °F 93% 30.27 in 10.0 mi North 17.3 mph 23.0 mph N/A Rain Light Freezing Rain
12:35 AM 26.6 °F 15.7 °F 23.0 °F 86% 30.27 in 10.0 mi North 12.7 mph - N/A   Overcast
12:55 AM 24.8 °F 15.3 °F 23.0 °F 93% 30.26 in 10.0 mi North 9.2 mph - N/A   Mostly Cloudy
1:15 AM 24.8 °F 16.9 °F 23.0 °F 93% 30.26 in 10.0 mi NNW 6.9 mph - N/A   Scattered Clouds
1:55 AM 23.0 °F 14.7 °F 21.2 °F 93% 30.25 in 10.0 mi NNW 6.9 mph - N/A   Partly Cloudy
2:15 AM 23.0 °F 13.1 °F 21.2 °F 93% 30.24 in 10.0 mi NNW 9.2 mph - N/A   Mostly Cloudy
2:35 AM 24.8 °F 16.9 °F 21.2 °F 86% 30.23 in 10.0 mi NNW 6.9 mph - N/A   Overcast
2:55 AM 24.8 °F 16.9 °F 21.2 °F 86% 30.22 in 10.0 mi NNW 6.9 mph - N/A   Mostly Cloudy
3:15 AM 23.0 °F 14.7 °F 19.4 °F 86% 30.22 in 10.0 mi WNW 6.9 mph - N/A   Partly Cloudy
3:35 AM 21.2 °F 11.7 °F 19.4 °F 93% 30.22 in 10.0 mi WNW 8.1 mph - N/A   Clear
3:55 AM 19.4 °F 8.6 °F 17.6 °F 93% 30.21 in 10.0 mi West 9.2 mph - N/A   Clear
4:15 AM 19.4 °F 8.6 °F 17.6 °F 93% 30.21 in 10.0 mi West 9.2 mph - N/A   Clear
4:35 AM 19.4 °F 8.6 °F 17.6 °F 93% 30.20 in 10.0 mi West 9.2 mph - N/A   Clear
4:55 AM 19.4 °F 12.8 °F 17.6 °F 93% 30.20 in 10.0 mi West 4.6 mph - N/A   Partly Cloudy
5:15 AM 17.6 °F 7.3 °F 15.8 °F 93% 30.20 in 10.0 mi West 8.1 mph - N/A   Clear
5:35 AM 17.6 °F 7.3 °F 15.8 °F 93% 30.19 in 10.0 mi West 8.1 mph - N/A   Clear
5:55 AM 17.6 °F 7.3 °F 15.8 °F 93% 30.19 in 10.0 mi West 8.1 mph - N/A   Clear
6:15 AM 17.6 °F 8.2 °F 14.0 °F 86% 30.20 in 10.0 mi WSW 6.9 mph - N/A   Clear
6:35 AM 17.6 °F 8.2 °F 15.8 °F 93% 30.20 in 10.0 mi West 6.9 mph - N/A   Clear
6:55 AM 17.6 °F 9.3 °F 14.0 °F 86% 30.19 in 10.0 mi WSW 5.8 mph - N/A   Clear
7:15 AM 19.4 °F 12.8 °F 15.8 °F 86% 30.19 in 10.0 mi West 4.6 mph - N/A   Clear
7:35 AM 19.4 °F - 17.6 °F 93% 30.19 in 10.0 mi Calm Calm - N/A   Clear
7:55 AM 21.2 °F 13.6 °F 17.6 °F 86% 30.19 in 10.0 mi WSW 5.8 mph - N/A   Clear
8:15 AM 23.0 °F - 19.4 °F 86% 30.19 in 10.0 mi Calm Calm - N/A   Clear
8:35 AM 24.8 °F - 19.4 °F 80% 30.18 in 10.0 mi Calm Calm - N/A   Clear
8:55 AM 24.8 °F - 19.4 °F 80% 30.18 in 10.0 mi Calm Calm - N/A   Clear
9:15 AM 26.6 °F 22.6 °F 21.2 °F 80% 30.18 in 10.0 mi East 3.5 mph - N/A   Clear
9:35 AM 28.4 °F 24.6 °F 19.4 °F 69% 30.18 in 10.0 mi East 3.5 mph - N/A   Clear
9:55 AM 28.4 °F - 19.4 °F 69% 30.17 in 10.0 mi Calm Calm - N/A   Clear
10:15 AM 30.2 °F 26.7 °F 21.2 °F 69% 30.17 in 10.0 mi SE 3.5 mph - N/A   Clear
10:35 AM 32.0 °F 27.5 °F 23.0 °F 69% 30.16 in 10.0 mi SSE 4.6 mph - N/A   Clear
10:55 AM 32.0 °F 28.7 °F 23.0 °F 69% 30.14 in 10.0 mi SSE 3.5 mph - N/A   Clear
11:15 AM 32.0 °F 26.4 °F 23.0 °F 69% 30.13 in 10.0 mi SSE 5.8 mph - N/A   Clear
11:35 AM 33.8 °F 27.7 °F 23.0 °F 65% 30.11 in 10.0 mi SSE 6.9 mph - N/A   Clear
11:55 AM 35.6 °F 29.9 °F 23.0 °F 60% 30.10 in 10.0 mi South 6.9 mph - N/A   Clear
12:15 PM 35.6 °F 29.9 °F 21.2 °F 56% 30.08 in 10.0 mi SSE 6.9 mph - N/A   Clear
12:35 PM 37.4 °F 32.8 °F 21.2 °F 52% 30.06 in 10.0 mi SE 5.8 mph - N/A   Clear
12:55 PM 37.4 °F 30.8 °F 19.4 °F 48% 30.06 in 10.0 mi SSE 9.2 mph - N/A   Clear
1:15 PM 39.2 °F 32.5 °F 17.6 °F 42% 30.04 in 10.0 mi SSE 10.4 mph - N/A   Clear
1:35 PM 39.2 °F 33.0 °F 15.8 °F 39% 30.03 in 10.0 mi South 9.2 mph - N/A   Clear
1:55 PM 41.0 °F 34.7 °F 14.0 °F 33% 30.02 in 10.0 mi SSE 10.4 mph - N/A   Clear
2:15 PM 41.0 °F 35.2 °F 14.0 °F 33% 30.01 in 10.0 mi South 9.2 mph - N/A   Clear
2:35 PM 41.0 °F 36.4 °F 14.0 °F 33% 30.00 in 10.0 mi SE 6.9 mph - N/A   Clear
2:55 PM 41.0 °F 35.8 °F 14.0 °F 33% 30.00 in 10.0 mi SSE 8.1 mph - N/A   Clear
3:15 PM 41.0 °F 35.2 °F 14.0 °F 33% 29.99 in 10.0 mi South 9.2 mph - N/A   Clear
3:35 PM 41.0 °F 35.2 °F 14.0 °F 33% 29.98 in 10.0 mi SE 9.2 mph - N/A   Clear
3:55 PM 41.0 °F 35.2 °F 14.0 °F 33% 29.97 in 10.0 mi SE 9.2 mph - N/A   Clear
4:15 PM 41.0 °F 35.2 °F 14.0 °F 33% 29.97 in 10.0 mi SSE 9.2 mph - N/A   Clear
4:35 PM 39.2 °F 33.6 °F 14.0 °F 36% 29.97 in 10.0 mi SE 8.1 mph - N/A   Clear
4:55 PM 37.4 °F 33.8 °F 14.0 °F 38% 29.98 in 10.0 mi SE 4.6 mph - N/A   Clear
5:15 PM 35.6 °F 31.7 °F 14.0 °F 41% 29.98 in 10.0 mi SSE 4.6 mph - N/A   Clear
5:35 PM 35.6 °F 29.9 °F 14.0 °F 41% 29.98 in 10.0 mi South 6.9 mph - N/A   Clear
5:55 PM 33.8 °F 28.6 °F 14.0 °F 44% 29.99 in 10.0 mi South 5.8 mph - N/A   Clear
6:15 PM 32.0 °F 24.2 °F 14.0 °F 48% 29.99 in 10.0 mi South 9.2 mph - N/A   Clear
6:35 PM 32.0 °F 24.2 °F 14.0 °F 48% 29.99 in 10.0 mi South 9.2 mph - N/A   Clear
6:55 PM 32.0 °F 26.4 °F 14.0 °F 48% 30.00 in 10.0 mi South 5.8 mph - N/A   Clear
7:15 PM 28.4 °F 22.2 °F 14.0 °F 55% 30.00 in 10.0 mi South 5.8 mph - N/A   Clear
7:55 PM 28.4 °F 20.4 °F 12.2 °F 51% 30.00 in 10.0 mi SSW 8.1 mph - N/A   Clear
8:15 PM 28.4 °F 22.2 °F 14.0 °F 55% 30.00 in 10.0 mi SW 5.8 mph - N/A   Clear
8:35 PM 28.4 °F 24.6 °F 14.0 °F 55% 30.01 in 10.0 mi North 3.5 mph - N/A   Clear
8:55 PM 30.2 °F 21.3 °F 14.0 °F 51% 30.00 in 10.0 mi South 10.4 mph - N/A   Clear
9:15 PM 28.4 °F 20.4 °F 14.0 °F 55% 30.01 in 10.0 mi SSW 8.1 mph - N/A   Clear
9:35 PM 26.6 °F 21.2 °F 14.0 °F 59% 30.01 in 10.0 mi SW 4.6 mph - N/A   Clear
10:15 PM 24.8 °F 16.9 °F 14.0 °F 64% 30.02 in 10.0 mi WSW 6.9 mph - N/A   Clear
10:35 PM 24.8 °F 19.1 °F 14.0 °F 64% 30.02 in 10.0 mi SW 4.6 mph - N/A   Clear
10:55 PM 24.8 °F 16.1 °F 14.0 °F 64% 30.02 in 10.0 mi SSW 8.1 mph - N/A   Clear
11:15 PM 24.8 °F 16.9 °F 14.0 °F 64% 30.01 in 10.0 mi SSW 6.9 mph - N/A   Clear
11:35 PM 24.8 °F - 14.0 °F 64% 30.02 in 10.0 mi Calm Calm - N/A   Clear
11:55 PM 23.0 °F - 14.0 °F 68% 30.03 in 10.0 mi Calm Calm - N/A   Clear